Location: Hard
(49.9417°N, 12.0858°E)
Time: 01:33:02
(UTC+00:00)

Cosmos 2221 - Pass Details

Date: 07 June 2020
Orbit: 594 x 615 km, 82.5° (Epoch: 11 July)

Event Time Altitude Azimuth Distance (km) Brightness Sun altitude
Rises 00:28:45 0° 354° (N) 2,883 7.2 -15.2°
Reaches altitude 10° 00:31:03 10° 1° (N) 1,977 6.3 -15.1°
Maximum altitude 00:35:16 45° 74° (ENE) 839 3.5 -14.9°
Drops below altitude 10° 00:39:28 10° 148° (SSE) 1,970 4.8 -14.7°
Enters shadow 00:39:29 10° 148° (SSE) 1,977 4.8 -14.6°
